Wind_Speed
30 28 27 28 29 29 28 27 27 27 26 24 23 21 20 20 19 19 18 18 17 17 17 16 14 14 14 14 13 12 13 13 13 12 12 13 13 12 12 13 14 14 14 14 14 16 19 21 23 23 22 22 23 23 24 25 25 25 25 25 26 26 26 27 27 27 27 27 27 27 28 28 28 29 30 31 31 30 30 31 31 33 34 35 36 36 37
30 29 28 28 28 28 28 27 27 28 28 26 25 23 22 21 21 20 20 20 20 19 19 19 19 16 15 16 15 14 15 15 15 14 14 14 13 11 11 12 13 13 13 13 13 14 16 19 22 23 23 23 23 23 24 25 25 25 26 26 26 27 27 28 28 28 28 28 29 29 30 30 31 32 32 32 32 32 32 32 33 35 36 37 38 38 39
31 30 30 29 28 27 27 27 28 29 29 28 26 24 23 23 22 22 23 23 22 21 21 22 21 19 17 17 15 15 16 17 16 16 15 14 12 11 11 11 12 14 13 13 12 12 14 17 20 22 23 23 24 24 24 25 25 26 26 27 27 28 28 29 29 29 29 30 31 31 31 32 33 34 34 34 34 34 33 34 36 37 38 39 40 40 41
32 31 30 29 27 26 26 27 28 29 28 27 25 24 23 22 22 24 25 25 24 24 24 24 23 22 20 18 17 17 18 18 18 17 16 14 13 12 13 12 12 14 15 15 14 13 13 14 17 20 22 23 24 25 26 26 27 27 28 28 29 29 29 30 30 31 31 32 32 32 32 33 34 35 35 35 35 35 35 35 37 39 40 41 42 42 43
34 32 31 29 27 25 25 28 29 28 27 26 25 25 24 22 22 24 24 24 24 25 26 26 24 24 22 20 20 20 20 19 20 19 18 16 15 14 15 15 15 15 16 17 17 17 17 16 16 18 20 23 24 26 27 27 28 29 29 30 30 30 31 31 32 32 32 32 33 33 34 36 37 37 37 37 38 38 38 38 38 40 42 43 43 44 44
36 35 34 32 28 26 28 30 30 28 27 25 26 26 25 23 22 23 24 24 25 26 27 27 26 25 24 23 23 22 21 21 22 22 21 19 19 18 18 19 19 19 18 19 19 19 20 20 20 20 21 23 24 26 28 29 30 31 31 31 32 32 33 34 34 34 34 35 35 37 38 40 40 41 40 39 39 40 40 41 42 43 44 44 45 45 46
39 37 35 33 30 29 31 31 30 29 27 26 27 28 27 25 24 24 25 26 26 27 27 27 27 26 26 26 26 24 23 23 24 25 25 23 23 23 23 23 23 23 23 22 22 21 22 22 22 23 24 25 26 27 29 31 32 33 34 34 35 35 36 37 37 38 38 38 39 40 41 42 42 43 42 41 41 41 42 43 45 46 46 46 47 47 48
41 38 36 34 33 32 33 32 31 31 29 29 29 29 28 27 26 27 27 27 27 28 28 28 27 27 27 27 27 25 24 24 25 26 27 27 26 26 26 26 26 26 27 27 26 25 24 24 23 24 25 26 28 29 31 32 33 34 35 36 37 38 39 40 40 41 41 42 42 42 43 43 44 43 43 43 43 43 44 45 47 48 48 49 49 50 50
42 41 38 36 35 35 34 34 34 33 32 31 30 30 29 28 29 30 29 28 29 29 29 28 28 28 28 28 27 26 26 26 26 26 27 28 28 28 28 27 27 28 28 29 28 28 28 27 27 27 28 29 29 30 31 31 32 33 35 36 37 38 39 40 41 42 43 44 44 45 45 46 46 45 45 45 45 46 47 48 50 51 51 51 52 52 53
42 43 41 39 37 36 38 39 37 35 34 33 31 31 30 30 31 32 31 31 31 31 30 30 29 29 29 29 28 27 27 27 26 26 27 28 29 29 29 29 29 29 30 30 30 30 30 30 30 31 31 31 31 31 31 32 33 34 35 36 36 37 38 40 41 43 44 45 46 47 48 48 48 47 47 47 47 48 49 50 52 52 53 53 54 55 56
44 45 45 42 39 39 42 43 40 37 37 36 33 31 31 33 34 33 33 33 32 32 32 31 30 29 29 29 27 27 28 28 27 27 28 29 30 31 31 31 31 30 31 31 31 31 32 32 33 33 34 34 34 35 35 35 36 37 37 37 38 38 40 41 42 44 45 45 46 47 47 47 48 48 47 47 48 49 50 52 53 53 54 55 56 57 58
47 49 48 44 41 41 44 45 44 41 40 38 35 33 34 36 36 35 34 34 33 33 33 31 30 30 29 28 28 28 29 29 29 29 30 31 32 32 32 33 32 32 32 32 33 34 34 35 35 35 36 36 37 37 38 38 38 39 39 40 40 41 42 42 43 44 44 43 44 45 45 46 46 47 47 47 48 49 51 52 54 55 56 57 58 59 60
49 52 51 46 43 44 46 47 47 46 44 42 39 37 38 39 39 37 37 37 36 35 34 33 32 31 30 31 30 30 31 31 32 32 33 34 34 34 34 35 35 35 35 35 36 36 37 37 37 37 38 38 38 39 39 39 40 40 41 41 42 43 43 44 44 44 44 44 46 47 47 47 46 46 47 47 48 50 51 54 56 58 59 60 61 62 63
52 53 53 50 46 45 47 49 50 49 47 45 43 42 42 42 41 41 40 38 38 37 36 35 34 33 32 33 33 32 32 33 34 35 36 36 37 37 38 37 37 37 37 37 38 38 38 38 38 39 39 40 41 41 42 42 42 42 43 43 44 44 44 45 45 45 45 46 49 50 49 49 48 48 48 49 50 52 54 57 59 60 60 62 63 64 66
58 56 56 55 51 48 49 50 51 51 50 48 47 46 45 44 44 44 42 41 40 39 38 37 36 35 35 35 35 35 34 35 36 37 38 39 39 39 39 39 39 38 39 39 39 39 39 39 39 40 41 42 43 45 46 47 47 47 47 47 47 47 46 46 46 47 47 50 53 53 51 51 51 51 52 53 54 56 58 60 61 62 63 65 66 68 69
59 59 58 57 56 53 52 51 51 52 51 50 49 49 48 47 46 46 45 44 43 42 42 40 38 37 37 37 38 38 37 37 37 38 40 40 41 41 41 41 41 41 41 41 40 40 40 41 42 43 44 45 47 49 49 48 48 48 48 48 48 48 47 47 49 49 50 53 55 55 54 54 55 56 57 58 59 60 62 63 65 66 68 69 70 71 73
59 60 58 56 55 54 52 52 51 51 51 51 51 51 50 50 49 47 47 46 45 44 44 43 42 40 39 40 40 41 41 41 41 41 42 42 42 42 42 43 44 43 42 41 41 42 44 47 48 49 48 48 49 48 46 46 47 48 49 49 50 51 51 51 52 53 54 55 56 57 57 57 59 61 62 63 64 65 66 67 69 70 71 73 74 75 76
58 61 60 57 55 53 52 52 52 52 52 52 52 53 53 52 51 49 48 47 46 46 46 46 45 43 42 42 41 42 43 44 45 45 44 44 43 43 43 43 44 43 43 43 44 46 48 49 48 48 48 47 45 44 44 46 51 54 54 54 54 55 56 57 57 57 58 59 59 60 61 62 63 65 66 67 67 68 69 70 71 72 73 75 76 78 79
57 60 62 61 59 57 55 54 53 53 54 54 54 54 54 54 53 51 49 48 48 47 47 47 47 45 45 45 45 45 43 42 43 43 43 43 45 45 44 43 43 44 45 46 47 49 49 44 41 42 44 44 44 45 46 49 54 57 58 58 58 58 60 61 61 61 62 63 63 64 65 66 68 69 70 70 70 70 70 71 72 73 75 76 78 80 82
61 61 62 62 62 61 60 59 57 55 55 56 56 56 56 56 55 54 52 50 50 49 48 49 47 45 46 46 45 43 39 37 39 41 42 44 46 46 45 44 45 47 48 49 50 50 46 41 38 39 42 44 45 47 50 54 58 60 61 62 62 63 65 65 65 66 68 69 69 69 70 70 71 72 73 73 73 72 72 73 74 75 77 78 80 82 85
65 64 63 62 62 63 64 63 61 60 59 60 59 59 58 58 58 57 56 54 53 50 48 47 45 43 45 47 45 42 40 42 45 47 48 50 49 47 47 48 49 50 51 52 52 49 43 39 37 37 40 45 48 51 55 61 65 66 67 68 69 69 70 71 71 71 72 73 73 74 74 74 74 74 75 75 74 74 75 76 77 78 79 81 83 85 88
66 66 65 64 64 65 64 64 63 63 64 64 63 63 62 62 61 61 60 58 57 54 53 51 48 46 49 52 51 49 47 47 49 50 51 52 49 47 48 51 53 55 56 55 52 49 45 43 42 43 46 51 54 57 62 67 71 72 72 73 74 74 75 76 76 76 76 77 77 77 77 77 77 76 76 76 76 77 78 79 80 80 82 84 86 89 92
67 66 65 66 66 66 65 65 65 66 66 66 66 65 65 65 64 64 63 62 60 59 59 58 56 54 54 54 54 53 51 51 53 54 54 54 53 53 54 54 55 57 58 55 52 53 53 51 48 48 52 56 60 63 68 74 77 76 76 76 77 78 79 80 81 81 81 81 81 80 80 80 79 78 78 78 79 79 81 82 83 84 86 88 90 92 94
67 66 66 66 67 68 67 66 66 67 67 67 67 66 66 66 67 67 67 66 65 64 63 63 62 61 61 60 59 59 57 56 56 58 59 59 61 62 62 59 55 54 54 54 54 55 55 52 50 52 55 59 63 68 75 79 80 80 80 80 80 81 82 84 85 85 85 85 84 83 82 82 82 82 81 82 82 83 84 86 88 89 91 92 93 95 97
67 67 66 66 67 69 70 69 68 68 67 67 68 68 68 68 69 69 70 70 70 69 69 68 68 68 68 68 67 67 66 64 63 63 64 66 68 70 70 68 64 62 61 60 60 58 55 55 56 58 61 65 69 74 80 83 83 83 84 84 84 85 86 87 87 88 88 88 87 86 85 85 86 86 86 86 87 89 90 91 92 94 95 96 98 99 101
68 68 68 68 68 70 72 72 71 70 70 70 71 71 71 71 72 72 73 73 74 74 74 73 73 73 73 73 72 72 72 70 69 69 69 70 71 73 73 71 69 68 67 66 66 65 64 66 67 68 69 73 77 80 82 84 85 86 86 86 86 88 89 89 89 90 90 89 88 87 87 88 89 90 91 92 93 94 95 96 97 98 100 102 103 105 107
72 71 71 70 71 72 73 73 73 73 74 74 73 74 75 75 75 75 76 76 76 77 77 77 77 77 76 76 75 75 74 74 74 74 74 73 74 74 74 73 72 72 72 72 72 72 73 74 75 75 76 78 81 82 83 84 86 87 88 88 88 89 90 90 90 90 91 90 89 89 89 90 92 94 95 97 98 98 99 100 102 104 105 107 109 110 111
77 76 74 74 74 74 75 74 74 75 77 77 76 75 76 76 77 77 77 77 78 78 78 78 78 78 78 78 78 78 78 78 78 77 77 77 77 77 77 78 77 77 77 77 77 77 77 78 79 79 80 81 83 84 85 86 87 88 89 89 89 90 90 90 90 90 90 91 91 91 92 93 95 97 99 100 101 102 103 105 106 108 110 111 112 114 115
80 79 78 77 77 77 77 77 77 77 78 79 78 77 77 77 77 77 78 78 78 79 79 79 79 79 80 80 80 80 80 81 81 81 81 81 81 81 81 81 81 80 80 80 80 80 81 81 82 82 83 84 86 87 88 88 89 89 90 90 90 90 90 90 89 89 89 91 92 94 95 97 98 100 101 103 104 105 106 107 109 111 112 113 115 116 117
84 83 81 80 80 79 79 80 80 80 80 80 80 80 80 79 79 79 79 79 79 80 80 80 80 80 81 81 81 82 82 82 83 83 83 83 83 84 84 83 83 83 83 83 84 84 84 84 84 85 86 88 89 89 90 90 90 90 90 90 90 90 90 90 89 89 90 92 94 96 98 100 101 103 104 105 105 106 108 109 111 113 114 115 116 118 120
87 86 85 84 83 82 82 82 83 83 83 83 82 82 82 82 82 81 81 81 81 82 82 81 82 82 82 82 83 83 84 84 85 85 85 86 86 86 86 86 86 86 86 87 87 87 87 87 87 88 89 91 91 91 91 90 90 90 90 91 90 90 90 90 91 91 92 94 95 97 99 101 103 105 105 106 107 108 110 111 113 115 116 117 119 121 123
91 90 89 87 86 85 85 85 85 86 86 86 86 85 85 85 85 85 85 84 84 84 84 84 84 84 84 85 85 86 86 87 87 87 88 88 88 88 88 88 88 89 89 90 91 91 91 91 91 91 92 92 93 92 92 91 90 90 90 91 91 92 92 93 93 94 95 96 98 99 102 104 105 107 107 108 109 110 112 114 116 117 119 120 122 124 126
95 94 93 91 90 89 89 88 88 88 88 89 89 89 89 89 89 89 89 89 88 88 87 88 88 88 88 88 88 88 89 89 89 90 90 90 90 91 91 91 92 92 93 94 94 94 94 94 93 93 93 93 92 92 92 92 92 92 92 93 94 95 95 96 96 97 98 99 101 103 105 106 107 108 109 110 112 114 116 117 119 120 122 123 125 127 128
99 98 97 96 94 93 93 93 92 92 91 91 91 92 92 92 92 92 92 92 92 92 91 91 91 92 92 92 92 92 92 93 93 93 93 93 94 94 95 95 95 96 96 96 96 96 96 95 94 93 93 93 93 93 93 94 94 95 95 96 96 97 97 98 98 99 100 102 104 105 107 108 109 110 112 114 116 117 118 120 122 123 125 126 127 127 127
103 102 101 101 99 98 97 97 96 96 96 95 95 95 95 95 95 95 95 95 95 95 95 95 95 95 95 95 95 95 96 96 96 96 96 96 97 97 97 97 97 97 97 97 97 97 96 95 95 94 94 94 95 95 96 97 97 97 98 98 98 98 99 99 100 102 103 105 106 108 109 111 112 114 115 117 118 120 122 123 125 126 126 127 126 125 124
104 105 105 104 104 103 102 101 101 100 100 100 100 100 99 99 99 99 99 98 98 98 98 98 98 98 98 98 98 98 98 98 98 98 99 99 99 99 99 99 99 99 99 98 98 98 98 98 97 97 97 97 98 98 99 99 99 99 99 99 99 100 101 102 103 105 106 108 110 112 113 115 116 117 119 120 122 123 124 125 126 126 125 124 123 122 121
105 106 106 107 107 107 106 106 105 105 104 104 104 104 104 103 103 102 102 102 102 102 102 102 102 102 102 102 102 101 101 101 101 101 101 101 102 102 101 101 101 101 101 101 101 101 101 101 101 101 101 101 101 100 100 101 101 101 101 101 102 103 105 106 108 110 112 114 115 117 118 119 120 121 122 123 124 125 125 124 124 123 122 122 121 120 120
106 106 107 108 108 108 108 108 108 108 108 108 108 108 108 107 107 107 107 106 106 106 106 106 106 106 106 105 105 105 104 104 104 104 104 105 105 105 105 105 104 104 104 104 104 104 104 105 105 105 104 104 104 103 103 103 104 104 105 106 107 109 111 113 115 116 118 119 120 121 121 122 122 123 123 123 123 123 123 122 121 120 120 120 120 119 119
104 106 107 108 108 109 109 109 109 109 109 110 110 110 110 110 110 111 111 111 111 110 110 110 110 110 110 109 109 109 109 109 109 109 109 109 109 109 109 109 108 108 108 108 108 108 108 109 109 109 109 109 108 108 108 109 109 110 112 113 115 116 117 119 120 121 121 122 122 122 122 122 122 122 122 121 121 120 120 119 119 119 119 119 118 117 115
100 102 104 106 107 108 109 109 110 110 110 110 110 111 111 111 112 113 113 114 114 113 113 113 114 114 114 114 114 114 114 113 113 113 113 113 113 113 113 113 113 112 112 112 112 112 112 113 114 114 114 114 113 113 114 115 116 117 118 119 120 120 121 121 122 122 122 122 121 121 121 120 120 119 119 118 118 118 118 118 118 117 116 115 113 110 108
95 97 99 101 103 104 106 107 108 110 110 110 111 111 112 112 113 113 114 114 114 114 115 115 116 116 116 116 116 116 116 116 117 117 117 117 117 116 116 116 116 115 115 115 115 116 116 117 118 119 119 117 117 117 118 119 120 120 121 121 121 121 121 121 120 120 119 119 119 119 118 118 117 117 117 117 116 116 115 114 113 111 109 107 105 104 103
91 92 94 96 98 99 101 102 103 105 107 108 109 109 111 112 113 114 114 114 114 114 115 115 116 116 116 116 116 116 117 117 117 118 118 118 117 117 117 117 117 116 116 117 117 117 118 119 120 121 120 118 117 117 118 118 119 119 119 119 119 119 118 118 118 117 117 117 116 116 116 115 115 114 113 112 111 109 108 107 105 104 102 101 100 100 99
86 88 89 91 92 94 95 96 97 99 101 102 103 104 106 108 110 111 111 112 112 113 114 114 115 115 116 116 116 116 116 116 116 117 117 117 117 117 117 116 116 115 115 115 116 116 116 117 118 118 118 116 115 114 115 115 115 115 116 116 116 115 115 115 114 114 114 113 112 112 111 109 109 108 106 105 103 102 101 100 100 99 98 97 97 96 96
82 83 85 86 88 89 90 91 92 93 95 96 97 98 99 101 103 105 106 106 107 108 109 110 111 112 113 113 114 114 114 114 114 114 114 114 114 114 113 113 113 113 112 112 112 112 112 113 114 114 114 113 112 111 111 111 111 111 111 111 111 110 110 109 109 108 107 106 106 105 103 102 102 101 100 99 98 97 96 96 96 95 94 94 93 93 92
78 79 80 82 83 84 85 86 87 88 89 91 92 93 93 94 96 98 99 99 100 101 103 104 105 106 107 108 109 109 109 109 109 109 109 109 109 108 108 107 107 107 107 106 106 106 106 107 107 107 107 107 107 106 106 106 106 105 105 104 104 103 103 102 102 101 101 100 99 99 98 97 96 96 95 94 94 93 92 92 92 91 91 89 89 88 88
74 76 77 78 79 81 81 82 83 84 85 86 87 88 88 88 90 91 93 93 93 94 96 97 99 100 101 102 103 104 103 103 103 103 103 103 102 101 101 100 100 99 99 99 98 98 99 100 101 100 99 99 100 100 100 100 99 98 98 97 97 97 97 97 97 97 96 96 95 94 93 92 92 91 90 90 89 89 88 88 88 87 86 85 84 84 84
72 73 75 76 76 77 78 79 80 81 82 82 83 84 84 84 84 86 87 87 87 88 89 91 93 94 96 97 98 98 97 97 98 98 98 97 96 94 93 93 92 92 91 91 91 91 92 94 95 94 93 93 94 94 94 93 93 92 92 92 92 93 93 94 94 93 92 91 90 89 88 88 87 86 86 86 86 85 85 84 83 83 82 81 81 80 80
70 71 73 73 74 75 76 77 78 78 79 79 79 80 80 80 81 82 83 83 83 83 85 86 88 90 91 92 93 93 93 92 92 92 91 90 89 88 87 86 86 84 84 84 84 85 86 88 89 89 89 89 89 89 88 87 86 86 86 87 88 89 90 91 90 89 87 86 85 84 84 83 83 82 82 82 82 82 81 80 79 79 78 77 77 76 76
68 69 70 71 71 72 73 74 75 76 76 76 76 77 77 78 78 79 79 80 80 81 82 84 86 87 88 88 89 89 89 89 88 88 87 85 84 83 82 81 80 79 78 78 79 80 81 83 83 84 85 85 85 84 83 82 81 82 83 84 85 86 87 87 87 86 84 83 82 81 81 80 80 79 79 79 80 79 78 77 75 74 74 74 74 74 75
65 66 67 67 68 68 69 71 72 72 73 73 73 74 74 75 76 76 77 78 78 79 80 82 84 85 85 85 86 86 86 86 86 85 84 82 81 80 79 77 76 75 75 74 75 76 77 79 80 81 82 82 81 81 80 79 79 79 80 81 82 84 85 85 84 83 82 81 81 80 80 79 78 77 77 76 76 76 75 73 71 71 71 72 72 73 74
62 63 64 64 65 65 66 67 67 68 69 70 70 71 72 72 73 74 75 76 77 78 79 81 82 83 83 84 84 84 84 84 83 83 82 80 80 79 78 76 74 74 73 72 72 73 74 75 76 78 79 79 78 79 78 78 77 77 78 79 80 81 83 83 81 80 80 80 81 80 79 78 77 75 74 73 72 72 70 69 68 68 69 69 71 73 74
61 60 61 61 62 63 64 64 64 64 65 67 68 69 69 70 70 71 72 73 75 76 78 79 80 81 81 82 82 82 82 82 81 81 80 79 78 78 76 75 74 73 72 71 70 71 72 73 73 74 76 76 77 77 78 77 77 76 76 77 79 81 81 80 79 78 79 79 79 78 77 76 75 74 73 72 70 69 67 66 65 65 66 67 69 72 72
Wind_Direction
220 216 216 221 221 218 216 216 216 217 217 218 219 221 226 232 237 243 248 250 250 250 251 250 249 257 270 273 272 279 288 291 293 294 298 301 302 303 312 325 331 327 317 303 285 271 263 259 258 259 261 264 266 268 270 272 274 277 279 282 285 288 290 292 294 295 296 297 297 297 299 300 303 307 310 312 313 313 313 311 310 310 313 315 316 316 318
221 217 217 220 222 220 218 217 217 218 219 218 219 221 226 232 238 245 249 249 249 249 251 251 249 250 260 268 274 283 289 292 291 289 293 295 293 296 308 321 328 329 327 319 304 287 275 267 264 263 264 266 267 269 272 274 276 278 280 282 284 286 287 288 290 291 293 295 296 297 298 299 302 306 308 309 309 310 310 309 308 309 310 313 313 313 314
222 221 220 220 221 221 219 219 219 220 220 220 220 222 227 233 240 245 248 248 247 248 250 253 255 256 257 263 273 281 285 285 282 284 291 290 285 290 303 314 321 324 326 327 319 304 289 278 271 268 267 268 270 271 273 275 277 279 281 282 284 285 286 288 290 291 293 294 295 296 297 298 300 303 305 306 306 308 308 307 307 308 309 310 311 311 312
224 224 223 222 221 221 221 222 224 223 222 222 224 226 229 236 242 245 246 246 246 246 249 254 258 261 263 266 272 276 278 278 278 284 291 284 277 286 299 306 311 315 317 320 320 314 302 287 278 273 271 271 271 273 275 277 279 281 282 283 284 285 286 288 289 290 290 291 292 293 296 298 300 302 304 305 306 306 306 306 307 308 308 308 308 309 310
225 225 225 223 222 224 227 229 229 228 227 227 229 232 235 239 244 245 245 246 245 247 250 254 258 263 268 271 272 273 276 279 283 287 289 281 275 286 298 302 303 305 307 309 310 310 305 297 287 279 276 275 275 276 278 278 279 280 280 281 281 282 283 285 287 288 290 291 292 295 298 300 302 303 305 306 306 306 305 305 307 308 307 307 307 308 310
225 226 227 224 222 227 233 234 232 231 231 231 233 236 238 241 244 246 246 247 249 251 255 257 260 265 269 272 274 275 280 284 287 289 288 284 283 289 297 300 299 299 300 302 303 303 302 299 295 290 286 283 282 281 280 280 280 280 280 280 281 282 285 288 290 292 294 295 296 298 300 301 301 302 303 304 306 305 304 303 305 305 305 306 307 308 309
226 227 228 227 225 229 236 237 236 234 234 235 236 237 239 242 246 248 248 249 252 256 259 262 264 268 270 273 275 277 281 284 286 287 288 288 288 291 296 298 298 298 299 300 301 300 298 296 295 294 293 292 291 289 286 285 284 284 284 285 286 288 290 291 293 294 295 295 295 296 297 298 298 298 299 301 303 304 303 303 302 302 302 304 307 308 308
227 229 231 230 229 231 236 239 239 238 237 237 238 238 239 243 247 248 248 250 253 256 260 263 266 268 270 272 274 276 278 278 279 282 285 286 287 289 292 293 295 297 299 300 301 299 297 294 292 291 291 291 291 291 290 289 288 288 288 288 288 289 289 290 291 291 292 291 292 292 293 294 295 296 297 298 300 301 301 300 300 299 300 301 305 306 307
227 229 231 232 231 233 237 239 239 239 239 238 238 238 240 242 245 247 247 248 250 253 256 259 261 264 266 267 270 272 273 273 274 277 282 285 287 288 289 291 293 294 296 297 297 296 294 292 290 289 288 288 288 288 287 287 288 289 289 289 289 288 288 289 289 290 290 290 290 291 291 292 293 294 295 297 298 298 298 298 298 299 299 299 302 305 304
227 228 229 229 230 233 237 238 238 238 238 237 236 237 239 241 242 244 245 246 249 252 254 256 258 260 262 263 265 268 270 272 274 277 282 286 288 289 290 291 291 292 293 293 294 293 292 292 292 292 292 291 292 291 290 289 290 292 292 292 291 291 291 292 292 292 292 292 291 292 292 293 293 294 295 296 296 296 296 296 297 298 298 299 301 302 301
231 230 228 226 226 231 236 237 236 237 238 237 234 234 237 239 240 242 244 246 249 253 255 257 259 261 262 264 267 269 272 274 276 280 284 288 289 290 290 291 292 292 292 293 294 295 296 296 297 297 296 296 297 296 295 294 295 296 296 295 295 295 295 295 295 294 293 293 293 294 294 294 295 295 296 296 296 295 296 297 297 298 298 299 299 300 300
236 235 233 228 225 229 235 237 236 235 236 236 234 232 235 239 240 241 244 247 249 253 256 258 259 260 262 266 269 270 272 274 277 282 287 290 290 290 291 293 294 294 294 295 297 300 300 301 301 299 298 299 299 299 297 295 296 297 298 298 297 296 296 296 295 295 294 295 296 296 296 296 296 297 297 297 297 297 297 297 297 298 299 300 299 300 300
235 236 236 232 228 229 233 236 236 234 233 235 235 234 236 240 242 242 244 247 250 253 255 256 257 259 263 267 270 271 273 276 280 285 289 291 292 292 292 293 295 295 296 297 298 300 301 301 301 300 298 298 299 299 297 294 294 294 296 297 297 296 296 295 295 295 295 296 297 297 296 295 295 296 296 296 296 296 296 297 297 298 299 299 299 299 300
230 233 234 232 230 230 232 235 237 236 234 234 236 237 238 240 242 244 245 247 250 253 254 254 256 259 263 267 270 273 276 278 282 285 288 290 291 292 292 293 293 294 295 297 298 298 299 299 299 298 298 297 297 297 296 294 292 293 293 294 296 297 296 296 296 296 295 295 296 296 295 294 294 294 294 294 294 294 295 296 297 298 298 297 298 299 301
228 231 233 231 230 231 232 234 236 236 235 235 236 238 239 240 242 245 247 248 250 252 252 253 255 259 262 266 270 274 277 279 282 284 286 288 291 293 292 292 292 293 295 297 298 299 299 299 298 297 296 296 295 295 295 293 292 292 294 294 295 297 297 297 297 296 294 294 295 296 296 296 296 295 294 294 294 294 295 296 298 299 299 299 301 302 304
230 232 233 233 232 233 234 234 235 237 237 236 238 240 241 241 243 245 248 249 250 251 252 252 253 257 261 265 268 271 274 278 281 283 284 287 290 292 292 292 292 294 296 297 299 301 303 302 301 298 296 296 296 295 294 293 292 292 295 296 297 297 297 296 296 295 294 293 294 296 297 297 297 296 295 295 295 296 298 299 301 301 301 302 303 303 304
236 236 235 235 234 235 236 236 236 238 238 238 239 241 242 242 243 245 248 250 251 253 253 253 253 257 262 266 267 268 272 277 282 282 282 284 287 289 290 290 291 294 296 297 298 301 305 306 304 300 296 295 296 295 293 294 295 296 297 298 298 297 297 297 296 295 294 292 293 294 296 296 296 295 295 296 298 299 300 301 301 301 301 302 302 303 303
236 238 238 238 237 237 237 237 238 239 239 239 239 241 243 243 243 244 245 247 250 254 255 256 258 262 266 269 269 270 274 280 284 283 280 278 280 282 284 286 288 290 292 294 298 303 307 306 304 301 295 291 292 293 293 297 298 299 300 300 299 298 297 297 297 297 295 293 292 292 293 293 293 294 295 296 298 299 299 300 299 299 300 300 301 302 303
234 235 236 238 238 238 238 238 238 240 240 240 239 240 242 243 243 243 242 244 248 252 256 258 261 264 269 272 272 272 277 284 286 282 277 274 274 276 279 283 286 287 289 294 300 305 306 305 304 305 300 292 287 287 291 297 299 300 300 300 299 299 298 296 296 295 295 294 292 291 290 291 292 293 294 295 297 297 298 298 298 298 298 299 300 302 304
234 233 234 235 237 238 239 239 239 239 240 240 240 241 242 242 243 242 243 244 247 251 256 258 261 265 270 273 272 270 271 273 272 269 270 272 273 276 280 285 288 288 290 296 300 303 304 302 301 303 299 292 287 285 291 299 302 301 299 299 298 298 297 295 293 293 293 293 292 291 291 291 292 293 294 295 296 296 296 297 297 298 299 300 301 303 304
236 235 234 233 234 235 237 238 238 238 238 239 240 241 242 243 243 243 245 246 247 249 253 255 256 258 261 262 262 259 257 257 259 263 268 272 276 280 285 288 289 287 289 295 298 298 300 297 291 285 283 282 282 282 288 298 301 299 298 298 297 297 296 295 294 293 293 293 292 292 291 291 292 294 295 295 295 295 296 296 297 299 300 301 302 303 304
239 239 237 236 235 236 236 237 238 239 239 240 241 243 244 245 245 245 247 247 247 246 247 249 250 249 250 252 256 255 253 252 256 262 267 270 274 278 281 283 283 282 284 288 289 289 291 289 282 276 274 274 274 276 284 293 297 296 297 297 297 296 296 296 295 295 294 294 293 292 292 292 293 294 294 294 295 296 296 297 298 300 301 302 302 303 304
241 241 240 239 239 239 238 238 238 240 242 243 244 245 246 246 246 247 248 249 248 247 247 248 249 248 248 250 253 255 254 252 254 258 262 265 268 272 275 277 278 279 282 283 282 283 286 284 279 276 276 275 274 276 282 290 294 295 296 296 295 295 296 296 295 295 295 294 294 293 293 293 294 294 295 295 296 297 297 299 300 301 301 302 302 303 303
241 243 243 242 242 243 242 241 240 240 242 244 245 246 246 247 247 248 249 250 250 250 250 250 251 252 251 251 252 253 254 254 254 256 258 260 263 267 271 273 275 277 279 280 280 282 284 282 277 275 275 274 275 278 284 289 292 294 294 295 294 295 295 295 295 295 295 294 294 295 295 296 296 296 297 298 298 299 299 300 301 301 302 302 302 303 304
242 244 245 245 244 244 245 244 243 243 243 244 245 246 246 247 248 248 249 250 250 251 251 252 253 254 254 255 255 255 255 256 256 257 258 259 262 265 268 270 272 274 275 277 278 280 281 280 278 276 274 274 277 282 286 289 291 293 294 294 295 295 295 295 295 295 295 296 296 297 298 298 299 299 300 300 301 301 302 302 302 302 303 303 304 305 306
243 244 245 246 246 245 245 245 246 246 246 245 246 246 247 247 248 248 249 249 250 251 252 253 254 255 255 256 257 258 258 258 259 261 262 263 264 266 269 271 272 273 275 277 278 278 279 279 280 280 279 279 281 283 286 288 290 291 292 293 294 294 294 295 296 295 295 296 297 298 299 299 300 301 302 302 302 303 303 303 304 304 305 306 307 308 309
242 243 244 244 245 245 246 246 246 247 248 248 248 248 249 249 249 249 249 249 250 250 251 252 254 255 256 257 258 259 260 260 262 264 265 266 266 268 269 271 272 273 275 277 278 278 279 280 281 282 282 282 283 284 286 288 289 290 291 292 292 293 294 295 295 295 296 297 298 298 299 299 300 301 302 303 303 304 304 305 305 306 307 307 309 310 311
241 242 242 243 244 245 246 246 246 247 248 248 248 249 249 250 250 250 250 250 251 251 252 252 253 254 256 257 258 260 261 262 264 265 266 267 268 269 270 271 272 274 275 276 277 278 279 280 281 282 282 283 284 285 286 287 288 289 290 291 292 293 294 294 294 295 296 297 298 298 299 300 301 302 302 303 303 304 305 306 306 307 308 309 310 310 311
242 242 242 243 244 245 247 247 247 247 248 249 249 249 250 250 251 252 252 252 252 253 253 254 254 255 256 257 258 260 261 262 264 265 266 267 268 269 270 271 272 273 274 275 277 278 279 280 281 282 282 283 284 285 286 286 287 288 290 291 292 292 292 293 293 294 295 295 296 297 298 299 300 301 302 302 303 304 305 305 306 307 308 308 309 309 309
244 244 243 243 244 245 247 248 249 249 249 250 251 251 252 252 252 253 254 254 255 255 255 256 256 257 258 258 259 260 261 263 264 265 266 267 268 269 270 272 273 274 275 276 277 278 279 280 281 281 282 283 283 284 285 286 288 289 290 290 291 291 291 292 292 293 294 294 295 296 297 298 299 300 301 301 302 303 303 304 305 306 306 307 307 307 307
246 246 246 245 245 245 246 247 249 250 251 251 252 252 253 253 254 254 255 255 256 257 257 258 258 258 259 260 261 262 262 263 264 265 266 266 268 269 271 272 273 274 275 276 277 277 278 279 280 281 281 282 283 284 285 286 287 288 288 289 289 290 290 291 291 292 292 293 293 294 295 296 297 298 299 300 301 301 302 303 303 304 304 304 305 305 305
246 247 247 247 247 247 247 247 248 249 251 252 253 253 254 254 255 256 256 256 257 257 258 258 259 259 260 260 261 262 263 264 264 265 266 267 268 269 270 272 272 273 274 275 276 277 278 278 279 280 281 282 283 284 285 286 286 287 287 288 288 289 289 289 290 290 291 291 292 293 294 295 296 297 298 299 300 300 300 301 302 302 302 303 303 303 304
247 247 247 248 248 249 249 249 249 249 250 251 253 254 255 255 256 256 257 257 257 258 258 259 259 260 260 260 261 262 262 263 264 265 266 267 268 269 270 271 272 272 273 274 275 276 277 278 278 279 280 281 282 283 284 285 285 286 287 287 288 288 288 288 289 289 290 290 291 292 294 295 296 297 297 298 298 299 299 300 300 301 301 301 302 302 303
247 248 248 248 248 249 249 250 250 251 251 252 252 253 254 255 256 256 257 258 258 258 259 259 259 260 260 261 261 262 263 263 264 265 265 266 267 268 269 270 271 272 272 273 274 275 276 277 278 279 280 281 282 283 283 284 285 285 286 286 286 287 287 288 288 289 290 291 292 293 294 294 295 296 296 297 297 298 298 298 299 299 300 300 301 302 302
249 249 250 250 250 249 249 250 250 251 251 252 253 253 254 254 255 256 257 258 258 259 259 260 260 261 261 262 262 263 263 264 265 265 266 267 267 268 269 270 271 272 273 274 275 276 277 278 279 279 280 280 281 282 283 283 284 285 285 286 286 286 287 287 288 289 290 291 291 292 293 293 294 294 295 295 296 296 296 297 297 298 299 299 300 301 301
250 250 251 251 251 251 251 251 251 251 252 252 253 253 254 254 255 256 257 257 258 259 259 260 261 261 262 262 263 263 264 265 266 266 267 268 268 269 270 271 272 273 274 275 275 276 277 278 278 279 280 280 281 282 283 283 284 284 285 285 285 286 286 287 288 288 289 290 290 291 291 292 292 293 293 293 294 294 295 295 296 297 298 298 298 299 299
251 251 252 252 252 253 253 253 253 253 253 254 254 254 255 255 256 256 257 258 258 259 259 260 261 261 262 263 263 264 265 265 266 267 268 269 269 270 271 271 272 273 274 275 275 276 277 277 278 279 279 280 281 281 282 282 283 283 284 284 284 285 285 286 286 287 288 288 289 290 290 291 291 291 292 292 293 293 294 294 295 296 296 296 297 297 298
252 252 253 253 253 254 254 254 255 255 255 255 256 256 257 257 258 258 258 259 259 259 260 261 261 262 262 263 264 264 265 266 266 267 268 268 269 270 270 271 272 273 273 274 275 276 276 277 277 278 278 279 279 280 281 281 281 282 282 282 283 283 284 285 285 286 287 287 288 288 289 289 289 290 290 291 291 292 292 293 293 294 294 295 295 296 296
252 252 253 254 254 255 255 256 256 256 256 257 257 257 258 258 259 259 260 260 261 261 262 262 263 263 264 264 265 265 266 266 267 267 268 268 269 270 270 271 272 272 273 274 275 276 276 277 277 277 278 278 279 279 280 280 280 280 281 281 282 282 283 284 285 285 286 286 287 287 287 288 288 289 289 290 290 290 291 291 292 292 293 294 294 295 296
251 252 253 254 254 255 256 257 257 258 258 258 258 259 259 259 260 260 260 261 261 262 262 263 263 264 264 265 265 266 266 267 268 268 269 269 270 270 271 272 272 273 273 274 275 275 276 276 277 277 277 278 279 279 280 280 280 280 281 281 282 282 283 283 284 284 285 285 285 286 286 286 287 287 288 288 288 289 289 290 291 291 292 293 294 295 296
252 252 253 254 255 255 256 256 257 258 259 259 260 260 260 261 261 261 261 262 262 262 263 263 263 264 264 265 265 266 267 267 268 268 269 269 270 271 271 272 272 273 273 274 274 275 275 276 276 277 277 278 278 279 279 279 280 280 280 281 281 281 282 282 282 283 283 283 284 284 284 285 285 285 286 286 287 288 289 289 290 291 292 293 294 295 296
254 254 254 255 255 256 256 256 257 257 258 259 260 260 261 261 262 262 263 263 263 264 264 265 265 265 266 266 266 267 267 267 268 269 269 270 270 271 271 272 272 273 273 274 274 275 275 276 276 276 277 277 278 278 278 278 279 279 279 280 280 280 281 281 281 282 282 282 282 283 283 284 284 285 285 286 287 288 289 290 291 292 293 294 295 296 297
256 256 256 256 256 257 257 257 257 257 258 258 259 259 260 261 261 262 262 263 264 264 265 265 266 266 266 267 267 267 268 268 268 269 269 270 270 271 271 272 273 273 274 274 274 275 275 275 276 276 277 277 277 277 277 278 278 278 278 279 279 280 280 280 281 281 281 281 282 282 283 284 284 285 286 287 288 289 290 291 292 293 294 294 295 296 297
258 258 258 258 258 258 258 258 259 259 259 259 259 259 259 260 261 261 262 262 263 263 264 264 265 265 266 266 267 267 267 268 268 269 269 270 270 271 271 272 272 273 273 274 274 274 275 275 275 276 276 277 277 277 277 277 277 277 278 278 279 279 280 280 280 281 281 282 282 283 284 285 285 286 287 288 289 290 291 292 292 293 294 294 295 296 297
259 259 259 259 259 259 259 259 260 260 260 260 260 260 260 260 260 261 261 262 262 263 263 264 264 264 265 265 266 266 266 267 267 268 268 268 269 269 270 271 271 272 272 273 273 273 274 274 274 275 275 276 276 276 276 277 277 277 278 278 279 280 280 280 281 281 282 282 283 284 285 286 287 288 289 289 290 291 291 292 292 293 294 295 295 296 297
260 260 260 260 260 260 260 260 260 260 260 260 261 261 260 260 261 261 262 262 262 263 263 264 264 265 265 265 265 266 266 267 267 267 267 267 268 268 269 270 270 271 272 272 272 273 273 273 274 274 275 275 276 276 277 277 278 278 279 280 280 280 281 281 281 281 282 283 284 285 286 287 288 289 289 290 291 291 291 292 292 293 294 295 296 296 297
260 260 260 260 260 260 261 261 261 261 261 261 261 262 262 261 262 262 262 263 263 263 264 264 265 265 265 265 266 266 266 266 267 267 267 268 268 269 269 270 270 271 271 272 273 274 274 274 275 275 275 275 276 276 277 278 279 280 280 281 281 281 281 281 281 282 283 284 285 286 287 288 288 289 290 290 290 291 291 292 293 294 295 296 296 297 297
260 260 260 261 261 261 261 261 261 261 262 262 262 262 263 263 263 263 263 264 264 264 264 265 265 265 266 266 267 268 268 268 268 269 269 269 270 270 270 271 271 271 272 273 273 274 274 275 276 276 276 276 276 277 278 279 280 280 281 281 281 281 281 282 282 283 284 285 286 286 287 288 288 289 290 290 290 291 292 293 294 295 296 296 297 297 298
261 260 260 260 260 261 261 261 262 262 262 263 263 263 264 264 264 264 264 265 265 265 265 266 266 267 267 268 269 270 270 271 271 271 271 272 272 272 271 272 272 272 273 273 274 274 275 276 277 277 277 277 278 279 279 280 280 280 280 281 281 281 282 282 283 284 285 285 286 286 287 287 288 289 289 290 291 292 293 294 295 296 297 297 298 299 299
261 261 261 261 261 261 261 261 262 262 262 263 263 263 263 263 264 264 264 265 265 265 266 266 267 267 268 269 270 270 271 272 273 274 274 275 275 275 274 274 274 274 273 273 274 274 275 275 276 277 277 278 279 279 279 279 279 280 280 280 281 281 282 282 284 285 286 287 287 286 287 287 288 289 289 290 291 292 294 295 296 297 297 298 299 299 299
261 262 262 262 262 262 262 262 262 263 263 263 262 262 262 262 262 262 263 263 264 264 264 265 266 267 268 269 270 271 272 273 274 275 276 277 278 278 278 278 278 277 277 276 276 276 276 276 276 277 278 279 279 279 279 278 278 279 279 280 280 280 281 282 283 285 285 286 286 286 287 288 289 289 289 290 291 292 293 295 296 296 296 297 297 297 297
263 263 263 263 263 264 263 263 263 263 263 263 263 262 262 261 261 261 262 262 262 263 263 264 265 266 267 268 269 271 272 273 274 275 276 277 277 278 279 279 279 279 279 279 279 278 278 278 279 279 280 280 280 279 279 279 279 279 279 279 279 279 280 281 283 284 284 285 286 287 288 289 289 290 290 291 292 292 293 294 294 295 295 296 296 295 295
Height
10674 10676 10678 10679 10680 10683 10684 10686 10688 10689 10690 10691 10692 10692 10693 10693 10694 10695 10695 10696 10696 10696 10696 10697 10697 10697 10697 10697 10698 10699 10699 10699 10699 10699 10699 10698 10698 10697 10696 10695 10694 10692 10691 10690 10689 10689 10689 10689 10689 10690 10690 10690 10690 10689 10689 10688 10688 10687 10687 10686 10685 10684 10683 10683 10682 10682 10681 10681 10680 10678 10677 10676 10674 10673 10671 10670 10669 10667 10666 10665 10663 10661 10660 10658 10655 10653 10651
10671 10673 10675 10676 10678 10680 10682 10683 10685 10686 10687 10688 10689 10690 10691 10691 10692 10693 10694 10694 10694 10694 10694 10694 10695 10696 10696 10696 10696 10697 10697 10697 10697 10697 10697 10697 10696 10695 10695 10694 10693 10691 10690 10689 10688 10688 10687 10687 10687 10687 10687 10687 10687 10686 10686 10685 10685 10684 10684 10683 10682 10682 10681 10680 10680 10679 10679 10678 10676 10675 10674 10672 10671 10669 10668 10666 10665 10664 10662 10661 10659 10658 10656 10654 10651 10649 10647
10668 10670 10672 10674 10676 10678 10679 10681 10681 10682 10683 10685 10686 10688 10689 10689 10691 10691 10691 10692 10692 10692 10692 10692 10693 10694 10694 10694 10695 10695 10695 10695 10695 10695 10695 10694 10694 10693 10693 10692 10691 10690 10689 10688 10687 10686 10686 10686 10685 10685 10685 10685 10684 10684 10683 10683 10682 10681 10681 10680 10679 10679 10678 10677 10677 10676 10675 10674 10673 10671 10670 10669 10668 10666 10664 10663 10661 10660 10659 10657 10655 10654 10651 10649 10647 10644 10642
10665 10668 10669 10672 10673 10675 10677 10678 10678 10679 10681 10682 10684 10685 10686 10687 10688 10688 10688 10689 10690 10690 10689 10689 10690 10691 10692 10692 10693 10693 10693 10692 10692 10692 10692 10691 10691 10691 10690 10690 10690 10689 10687 10686 10685 10685 10685 10684 10684 10683 10683 10683 10682 10681 10681 10680 10679 10678 10677 10677 10676 10675 10675 10674 10673 10672 10672 10670 10669 10668 10667 10665 10664 10662 10660 10659 10657 10656 10654 10653 10651 10649 10646 10644 10641 10639 10637
10661 10663 10666 10668 10670 10672 10673 10673 10674 10676 10678 10680 10681 10682 10683 10685 10685 10685 10685 10686 10687 10686 10686 10687 10688 10688 10689 10689 10689 10689 10689 10689 10688 10688 10688 10688 10688 10688 10688 10687 10687 10686 10685 10684 10683 10682 10682 10682 10682 10681 10681 10680 10679 10679 10678 10677 10676 10675 10675 10674 10673 10673 10672 10671 10670 10669 10668 10666 10665 10664 10662 10661 10659 10657 10656 10655 10653 10651 10649 10648 10646 10643 10641 10639 10637 10635 10633
10656 10659 10661 10664 10667 10668 10668 10668 10670 10673 10675 10677 10678 10679 10680 10681 10682 10682 10683 10683 10683 10683 10683 10684 10685 10685 10686 10685 10685 10685 10685 10685 10684 10684 10684 10685 10685 10685 10685 10684 10683 10683 10682 10682 10681 10680 10679 10679 10678 10678 10677 10677 10676 10675 10674 10673 10673 10672 10671 10671 10670 10669 10668 10666 10665 10664 10662 10661 10660 10659 10657 10656 10654 10653 10651 10651 10649 10647 10645 10642 10640 10638 10635 10633 10632 10630 10629
10652 10655 10658 10661 10663 10664 10663 10664 10668 10670 10672 10674 10675 10676 10677 10678 10679 10679 10680 10680 10680 10680 10680 10680 10681 10682 10682 10681 10681 10682 10682 10682 10681 10680 10680 10681 10681 10681 10682 10681 10680 10679 10678 10678 10677 10677 10676 10676 10675 10674 10673 10673 10672 10671 10670 10669 10668 10667 10667 10666 10665 10664 10663 10661 10660 10659 10658 10657 10655 10654 10653 10652 10650 10649 10648 10647 10645 10643 10641 10638 10635 10633 10630 10628 10627 10626 10624
10649 10652 10655 10657 10659 10659 10660 10662 10664 10666 10668 10670 10671 10672 10674 10675 10676 10676 10676 10677 10676 10676 10677 10677 10677 10678 10677 10677 10677 10678 10679 10679 10678 10677 10677 10677 10678 10678 10678 10678 10677 10676 10675 10674 10673 10673 10673 10672 10672 10671 10670 10669 10668 10667 10666 10665 10664 10663 10662 10662 10661 10659 10658 10657 10656 10655 10654 10653 10652 10650 10649 10648 10646 10645 10644 10642 10641 10639 10636 10634 10631 10628 10625 10623 10622 10620 10618
10646 10648 10650 10653 10655 10656 10657 10657 10659 10661 10663 10665 10667 10668 10670 10671 10671 10671 10672 10673 10672 10673 10673 10674 10674 10674 10674 10674 10674 10675 10675 10675 10675 10675 10675 10674 10674 10675 10674 10674 10674 10673 10672 10671 10670 10670 10669 10669 10668 10667 10667 10666 10665 10664 10662 10661 10660 10660 10659 10658 10657 10655 10654 10653 10652 10651 10649 10648 10647 10646 10645 10643 10641 10640 10639 10637 10636 10634 10631 10629 10625 10622 10620 10618 10616 10615 10612
10641 10643 10645 10648 10650 10652 10651 10651 10654 10657 10659 10661 10663 10665 10666 10667 10666 10666 10667 10668 10668 10669 10669 10670 10670 10671 10670 10670 10671 10672 10671 10671 10671 10672 10671 10671 10670 10670 10670 10670 10670 10670 10669 10668 10667 10666 10666 10665 10664 10663 10662 10661 10660 10659 10658 10657 10656 10655 10654 10653 10652 10651 10649 10648 10647 10646 10644 10643 10642 10641 10639 10637 10635 10634 10633 10632 10630 10628 10626 10623 10619 10617 10614 10613 10611 10609 10606
10637 10637 10638 10642 10645 10647 10645 10645 10649 10652 10654 10656 10659 10662 10662 10661 10660 10662 10663 10663 10664 10664 10665 10666 10667 10666 10666 10666 10668 10668 10667 10667 10667 10667 10667 10667 10666 10666 10666 10666 10666 10666 10665 10664 10664 10663 10662 10660 10659 10658 10656 10655 10654 10653 10652 10651 10650 10649 10648 10647 10646 10645 10644 10643 10642 10640 10639 10638 10636 10634 10632 10630 10629 10628 10627 10625 10624 10622 10619 10616 10613 10610 10609 10607 10605 10602 10599
10632 10632 10633 10636 10640 10641 10640 10640 10643 10646 10648 10650 10654 10657 10657 10655 10655 10657 10658 10658 10660 10660 10661 10662 10662 10662 10662 10662 10663 10664 10663 10662 10662 10662 10662 10662 10662 10661 10661 10661 10661 10661 10661 10660 10659 10658 10657 10656 10655 10653 10652 10651 10650 10649 10647 10646 10645 10644 10643 10642 10641 10640 10639 10638 10637 10635 10634 10632 10630 10628 10626 10624 10623 10622 10621 10619 10617 10615 10612 10609 10606 10604 10603 10600 10597 10594 10591
10625 10625 10628 10632 10634 10635 10635 10636 10637 10640 10642 10645 10648 10651 10650 10649 10650 10652 10653 10654 10655 10656 10657 10658 10657 10658 10658 10658 10658 10659 10659 10658 10658 10657 10657 10657 10656 10656 10656 10656 10656 10656 10656 10655 10654 10653 10652 10651 10650 10649 10648 10647 10646 10645 10643 10642 10641 10640 10639 10638 10637 10636 10634 10633 10632 10630 10629 10627 10624 10622 10620 10619 10618 10616 10615 10613 10611 10609 10606 10603 10600 10598 10596 10593 10589 10586 10583
10617 10619 10622 10625 10628 10629 10630 10630 10631 10634 10637 10639 10642 10643 10644 10645 10646 10647 10648 10649 10650 10651 10652 10653 10653 10653 10654 10654 10654 10654 10654 10654 10653 10653 10652 10652 10652 10651 10651 10651 10651 10651 10651 10651 10650 10649 10648 10647 10646 10645 10644 10643 10642 10641 10639 10638 10637 10636 10634 10633 10632 10631 10629 10628 10627 10625 10624 10621 10618 10616 10615 10613 10612 10610 10609 10607 10606 10604 10600 10597 10594 10592 10589 10585 10581 10578 10575
10611 10613 10616 10619 10621 10623 10624 10624 10625 10628 10631 10634 10636 10637 10638 10640 10641 10641 10643 10644 10645 10646 10647 10648 10648 10649 10650 10650 10650 10650 10650 10650 10649 10649 10648 10647 10647 10647 10646 10646 10646 10646 10646 10645 10645 10644 10643 10642 10641 10640 10639 10638 10637 10636 10634 10633 10631 10631 10630 10628 10627 10626 10624 10623 10621 10620 10618 10615 10612 10610 10609 10607 10605 10604 10602 10601 10600 10597 10594 10590 10587 10583 10580 10576 10573 10569 10566
10605 10607 10609 10612 10615 10617 10618 10619 10620 10622 10625 10629 10631 10631 10633 10635 10636 10637 10637 10638 10639 10640 10641 10643 10644 10645 10645 10645 10646 10645 10645 10645 10645 10644 10643 10642 10642 10641 10641 10640 10640 10640 10640 10639 10639 10638 10638 10637 10636 10635 10634 10633 10631 10629 10628 10626 10625 10624 10623 10622 10621 10619 10618 10617 10616 10615 10613 10610 10606 10604 10602 10600 10598 10596 10594 10593 10592 10589 10586 10582 10578 10574 10570 10566 10563 10559 10556
10599 10601 10603 10606 10609 10611 10613 10614 10616 10618 10620 10623 10625 10626 10627 10629 10630 10632 10632 10633 10634 10634 10635 10637 10639 10640 10640 10641 10641 10641 10640 10640 10640 10640 10639 10638 10637 10636 10635 10634 10634 10634 10634 10633 10633 10633 10632 10631 10630 10628 10627 10626 10624 10622 10620 10619 10617 10617 10616 10615 10614 10613 10612 10611 10610 10608 10606 10603 10600 10598 10596 10594 10591 10588 10586 10584 10582 10580 10577 10573 10569 10564 10560 10556 10553 10550 10546
10594 10595 10598 10601 10604 10606 10608 10610 10611 10613 10615 10617 10619 10620 10621 10623 10625 10626 10627 10628 10628 10629 10630 10631 10632 10633 10634 10635 10635 10635 10635 10634 10633 10633 10633 10632 10631 10630 10630 10629 10629 10629 10629 10628 10628 10628 10627 10625 10623 10621 10619 10618 10617 10615 10613 10612 10610 10608 10608 10608 10607 10606 10605 10604 10602 10601 10598 10595 10593 10591 10589 10586 10583 10580 10578 10575 10573 10571 10568 10564 10560 10556 10552 10548 10544 10540 10537
10588 10590 10593 10596 10598 10600 10602 10604 10606 10608 10609 10611 10613 10614 10615 10616 10618 10620 10622 10623 10623 10624 10625 10626 10626 10627 10628 10628 10629 10629 10628 10628 10627 10626 10626 10625 10624 10624 10625 10625 10625 10624 10623 10623 10624 10623 10621 10619 10617 10614 10612 10611 10610 10608 10607 10606 10604 10602 10602 10601 10600 10599 10598 10596 10595 10593 10590 10587 10585 10583 10580 10577 10574 10572 10569 10566 10564 10562 10559 10555 10551 10547 10543 10540 10536 10532 10527
10580 10583 10586 10589 10591 10594 10596 10598 10601 10602 10603 10605 10606 10607 10609 10610 10611 10613 10615 10617 10617 10619 10620 10621 10622 10623 10622 10622 10623 10623 10623 10623 10622 10620 10620 10619 10618 10618 10618 10619 10619 10618 10617 10618 10618 10616 10615 10613 10612 10611 10609 10605 10603 10602 10600 10599 10599 10597 10596 10595 10594 10592 10591 10588 10587 10585 10582 10579 10576 10574 10571 10568 10566 10563 10560 10557 10555 10553 10550 10546 10542 10538 10535 10531 10527 10523 10518
10572 10574 10579 10582 10584 10586 10588 10591 10593 10594 10595 10597 10599 10600 10601 10603 10605 10607 10609 10610 10611 10613 10614 10615 10617 10618 10616 10615 10616 10617 10617 10616 10615 10614 10614 10612 10611 10611 10612 10612 10613 10612 10611 10612 10611 10610 10610 10610 10610 10609 10607 10602 10598 10596 10593 10592 10591 10591 10590 10588 10587 10585 10582 10580 10578 10576 10573 10570 10567 10564 10561 10559 10557 10554 10552 10549 10546 10543 10540 10536 10532 10529 10525 10522 10518 10513 10508
10563 10567 10573 10576 10577 10579 10581 10584 10585 10586 10588 10590 10592 10593 10595 10596 10598 10600 10601 10603 10604 10606 10607 10607 10609 10609 10608 10607 10608 10609 10608 10608 10608 10609 10609 10607 10606 10606 10606 10606 10606 10605 10606 10607 10607 10604 10605 10605 10604 10601 10599 10596 10592 10590 10588 10586 10585 10584 10582 10580 10578 10576 10573 10570 10568 10566 10563 10560 10557 10554 10552 10549 10548 10546 10543 10540 10537 10534 10530 10526 10523 10519 10516 10512 10507 10503 10498
10556 10561 10566 10569 10571 10573 10575 10577 10579 10580 10582 10584 10585 10587 10588 10589 10591 10592 10594 10595 10597 10598 10599 10599 10600 10601 10601 10601 10601 10601 10601 10602 10603 10603 10604 10603 10601 10599 10599 10600 10600 10600 10600 10602 10601 10598 10597 10598 10596 10592 10590 10588 10586 10583 10581 10579 10578 10577 10575 10572 10569 10567 10563 10559 10556 10555 10552 10549 10547 10544 10542 10540 10538 10536 10533 10531 10528 10525 10520 10516 10513 10509 10505 10501 10497 10492 10488
10550 10555 10559 10562 10565 10566 10568 10570 10572 10573 10575 10577 10578 10579 10581 10582 10583 10585 10586 10587 10588 10589 10590 10591 10592 10593 10593 10594 10594 10594 10594 10595 10596 10597 10598 10598 10595 10592 10592 10594 10596 10596 10594 10593 10592 10590 10589 10589 10588 10586 10584 10581 10578 10576 10574 10571 10570 10568 10566 10562 10560 10557 10554 10549 10546 10542 10539 10537 10534 10532 10531 10528 10526 10524 10522 10519 10517 10514 10510 10506 10502 10498 10494 10490 10486 10481 10477
10546 10549 10552 10555 10557 10558 10559 10561 10563 10566 10568 10570 10570 10571 10573 10574 10575 10576 10577 10578 10579 10580 10581 10582 10583 10583 10584 10584 10585 10586 10586 10587 10588 10588 10589 10589 10588 10586 10586 10588 10590 10590 10587 10585 10583 10583 10581 10580 10579 10578 10577 10573 10570 10569 10567 10563 10561 10559 10556 10553 10550 10546 10543 10539 10535 10530 10525 10523 10520 10518 10517 10515 10512 10510 10508 10506 10503 10500 10497 10493 10490 10486 10481 10477 10472 10468 10463
10540 10542 10544 10547 10548 10549 10550 10552 10554 10557 10559 10561 10561 10562 10563 10564 10565 10566 10568 10569 10569 10570 10571 10572 10573 10573 10573 10574 10576 10576 10577 10578 10579 10579 10579 10580 10580 10579 10579 10580 10580 10580 10579 10577 10576 10575 10573 10571 10569 10569 10568 10565 10562 10561 10559 10556 10553 10550 10547 10544 10541 10537 10532 10529 10524 10518 10513 10510 10509 10506 10504 10501 10498 10496 10494 10492 10488 10485 10482 10479 10476 10471 10466 10462 10457 10452 10447
10529 10531 10534 10536 10538 10538 10539 10542 10546 10547 10548 10550 10551 10552 10552 10554 10555 10556 10557 10559 10560 10561 10562 10563 10563 10564 10564 10565 10567 10567 10568 10569 10570 10570 10570 10570 10570 10570 10570 10570 10570 10570 10570 10569 10568 10567 10565 10563 10561 10560 10559 10556 10553 10551 10550 10548 10544 10540 10537 10535 10532 10527 10523 10519 10513 10507 10501 10498 10497 10495 10492 10489 10486 10483 10480 10477 10473 10470 10467 10463 10460 10455 10451 10446 10441 10436 10432
10516 10519 10523 10526 10527 10527 10529 10532 10535 10536 10536 10537 10539 10541 10542 10543 10544 10545 10547 10548 10550 10551 10553 10554 10555 10556 10556 10557 10558 10559 10559 10560 10560 10561 10560 10560 10560 10560 10559 10559 10559 10560 10559 10559 10559 10558 10556 10554 10553 10552 10550 10547 10544 10542 10540 10538 10535 10531 10527 10525 10522 10517 10512 10507 10502 10497 10492 10488 10485 10482 10479 10477 10474 10471 10468 10464 10460 10456 10452 10449 10444 10439 10435 10431 10426 10421 10417
10504 10509 10513 10516 10517 10518 10519 10521 10524 10525 10525 10525 10528 10530 10532 10533 10534 10535 10536 10538 10540 10542 10543 10545 10546 10547 10548 10549 10550 10550 10550 10550 10550 10550 10550 10549 10549 10549 10549 10549 10549 10549 10549 10548 10548 10547 10546 10545 10544 10543 10540 10537 10534 10532 10530 10528 10525 10522 10518 10515 10511 10506 10501 10496 10492 10489 10484 10479 10475 10471 10468 10465 10463 10460 10456 10452 10448 10444 10440 10436 10430 10426 10422 10418 10413 10409 10405
10493 10497 10501 10505 10508 10510 10512 10512 10513 10514 10515 10516 10518 10520 10522 10523 10525 10526 10527 10529 10530 10532 10533 10535 10536 10537 10538 10539 10540 10540 10540 10540 10540 10540 10539 10538 10538 10537 10537 10538 10538 10538 10538 10537 10536 10535 10535 10535 10534 10533 10530 10527 10524 10522 10520 10518 10515 10511 10507 10503 10499 10495 10490 10486 10483 10480 10476 10471 10467 10462 10458 10455 10451 10448 10445 10441 10437 10433 10429 10424 10419 10415 10411 10407 10402 10398 10394
10482 10485 10489 10493 10497 10501 10503 10503 10503 10503 10504 10506 10509 10511 10512 10513 10514 10516 10518 10519 10520 10521 10523 10524 10526 10527 10528 10528 10529 10529 10529 10529 10529 10529 10528 10528 10527 10527 10527 10528 10528 10527 10527 10526 10525 10524 10524 10524 10523 10522 10519 10515 10513 10511 10510 10508 10505 10502 10497 10492 10488 10485 10480 10476 10473 10470 10467 10463 10459 10455 10450 10446 10442 10438 10435 10431 10427 10423 10418 10413 10409 10405 10401 10397 10392 10388 10383
10471 10474 10477 10481 10485 10489 10491 10492 10493 10494 10494 10495 10497 10499 10501 10502 10504 10505 10506 10508 10509 10511 10512 10513 10514 10515 10516 10517 10517 10517 10517 10517 10517 10517 10517 10517 10517 10517 10517 10517 10517 10516 10515 10514 10513 10513 10512 10512 10512 10511 10508 10504 10502 10501 10498 10496 10494 10491 10487 10482 10478 10474 10470 10466 10463 10461 10457 10453 10450 10446 10442 10437 10433 10429 10425 10421 10417 10412 10408 10403 10399 10395 10391 10387 10382 10377 10371
10460 10462 10466 10470 10474 10477 10478 10480 10482 10484 10485 10486 10487 10488 10489 10490 10492 10493 10494 10495 10497 10499 10500 10500 10501 10502 10504 10505 10505 10505 10505 10506 10506 10506 10506 10507 10506 10506 10506 10505 10505 10504 10503 10502 10502 10501 10500 10500 10501 10500 10497 10494 10492 10490 10487 10483 10481 10479 10476 10472 10468 10463 10459 10456 10453 10450 10447 10443 10439 10435 10431 10427 10423 10419 10415 10410 10406 10401 10397 10393 10388 10384 10380 10376 10371 10365 10360
10449 10451 10454 10458 10462 10465 10466 10467 10469 10472 10474 10475 10476 10476 10477 10478 10479 10480 10481 10482 10484 10486 10487 10488 10489 10490 10490 10491 10492 10492 10493 10493 10494 10495 10495 10495 10495 10494 10493 10493 10492 10491 10491 10490 10490 10489 10488 10488 10489 10488 10486 10483 10481 10478 10475 10472 10469 10467 10464 10461 10456 10452 10448 10445 10442 10439 10435 10432 10428 10424 10420 10416 10412 10408 10404 10399 10394 10390 10386 10381 10377 10373 10369 10364 10359 10354 10349
10438 10440 10442 10445 10448 10451 10454 10455 10457 10459 10461 10462 10463 10464 10465 10465 10466 10467 10469 10470 10471 10472 10473 10475 10476 10476 10477 10478 10479 10479 10480 10480 10481 10481 10482 10482 10481 10480 10480 10480 10479 10479 10478 10478 10478 10477 10476 10476 10475 10475 10473 10471 10469 10466 10463 10460 10458 10455 10452 10448 10444 10440 10436 10433 10430 10427 10423 10419 10416 10412 10409 10405 10401 10397 10393 10388 10384 10379 10375 10371 10367 10362 10358 10353 10348 10343 10338
10425 10427 10429 10431 10434 10436 10439 10442 10444 10446 10448 10449 10449 10450 10451 10452 10454 10455 10456 10457 10458 10459 10460 10461 10462 10463 10463 10464 10465 10466 10467 10467 10468 10468 10468 10468 10467 10467 10466 10466 10466 10466 10466 10465 10465 10464 10463 10462 10462 10460 10459 10458 10457 10454 10451 10448 10445 10442 10439 10435 10431 10427 10424 10421 10418 10415 10411 10408 10404 10401 10397 10394 10390 10386 10382 10377 10373 10368 10364 10360 10355 10351 10346 10341 10336 10332 10327
10411 10413 10415 10417 10419 10422 10424 10427 10431 10433 10434 10435 10436 10437 10438 10440 10442 10443 10444 10445 10446 10447 10447 10448 10449 10449 10450 10451 10452 10453 10454 10454 10455 10455 10455 10454 10454 10453 10453 10453 10453 10453 10453 10453 10452 10451 10450 10449 10448 10447 10446 10444 10443 10442 10439 10436 10433 10429 10426 10422 10418 10415 10412 10409 10406 10403 10400 10396 10393 10389 10386 10382 10379 10375 10370 10366 10361 10357 10352 10348 10344 10339 10334 10330 10325 10320 10315
10397 10399 10401 10402 10405 10407 10410 10413 10415 10418 10420 10421 10422 10423 10425 10427 10429 10430 10431 10431 10432 10433 10434 10435 10436 10437 10437 10438 10439 10440 10441 10442 10442 10441 10441 10441 10440 10440 10440 10440 10440 10441 10441 10440 10439 10438 10437 10436 10434 10433 10432 10431 10430 10429 10427 10424 10421 10417 10413 10410 10406 10403 10400 10397 10394 10391 10388 10385 10382 10378 10374 10370 10367 10363 10358 10354 10349 10345 10341 10336 10332 10327 10322 10318 10313 10309 10304
10383 10385 10387 10388 10390 10393 10395 10398 10400 10402 10404 10406 10408 10409 10412 10414 10414 10415 10416 10417 10418 10419 10421 10422 10422 10423 10423 10424 10425 10426 10426 10427 10427 10427 10427 10427 10426 10426 10426 10426 10427 10428 10428 10427 10426 10426 10424 10421 10419 10418 10416 10416 10417 10416 10414 10411 10407 10404 10400 10397 10393 10391 10388 10385 10381 10378 10376 10372 10368 10364 10361 10357 10354 10350 10346 10341 10337 10333 10328 10324 10319 10315 10310 10306 10301 10297 10292
10371 10372 10373 10375 10377 10379 10381 10383 10385 10386 10388 10390 10393 10395 10397 10398 10399 10399 10400 10401 10402 10405 10406 10407 10407 10407 10408 10409 10409 10410 10411 10411 10411 10411 10411 10411 10411 10411 10411 10411 10412 10413 10413 10414 10413 10412 10409 10406 10403 10400 10400 10401 10403 10402 10399 10395 10391 10388 10385 10382 10379 10377 10374 10371 10368 10365 10362 10358 10355 10351 10347 10344 10341 10337 10333 10329 10325 10321 10317 10312 10307 10303 10299 10294 10289 10284 10279
10360 10361 10362 10363 10364 10366 10369 10371 10371 10372 10372 10374 10377 10380 10380 10380 10381 10382 10383 10385 10387 10389 10390 10390 10390 10391 10392 10393 10394 10395 10395 10395 10395 10395 10395 10395 10395 10396 10396 10396 10397 10398 10399 10399 10398 10396 10394 10391 10386 10382 10383 10388 10389 10386 10381 10378 10375 10371 10368 10365 10363 10361 10358 10356 10354 10352 10348 10345 10341 10337 10334 10331 10328 10324 10321 10317 10314 10310 10305 10300 10295 10291 10286 10282 10277 10271 10266
10348 10350 10351 10351 10351 10353 10355 10357 10359 10359 10358 10359 10362 10365 10365 10364 10364 10366 10367 10369 10371 10372 10373 10373 10374 10374 10376 10377 10377 10378 10379 10379 10379 10378 10378 10379 10380 10380 10380 10380 10382 10383 10383 10383 10381 10380 10378 10375 10370 10365 10366 10372 10374 10371 10366 10362 10359 10355 10352 10349 10347 10345 10343 10341 10339 10337 10334 10330 10327 10324 10321 10318 10315 10311 10308 10305 10301 10297 10292 10287 10282 10278 10273 10269 10264 10259 10253
10335 10337 10338 10339 10339 10340 10341 10343 10345 10346 10345 10345 10348 10350 10351 10350 10349 10350 10352 10353 10355 10356 10357 10356 10357 10357 10358 10358 10359 10360 10361 10362 10362 10362 10362 10363 10363 10363 10363 10365 10367 10367 10367 10366 10365 10364 10362 10359 10354 10350 10350 10353 10355 10354 10351 10347 10343 10340 10336 10333 10331 10330 10328 10326 10323 10321 10318 10315 10312 10310 10307 10304 10301 10297 10294 10291 10287 10283 10279 10274 10269 10264 10260 10256 10252 10247 10242
10323 10324 10325 10326 10326 10327 10328 10329 10330 10332 10332 10332 10332 10335 10337 10336 10335 10334 10336 10338 10340 10341 10341 10340 10340 10340 10340 10341 10342 10342 10343 10344 10345 10346 10347 10347 10347 10347 10349 10350 10350 10350 10350 10350 10349 10348 10346 10342 10338 10335 10335 10335 10335 10335 10333 10330 10327 10325 10322 10319 10317 10315 10313 10310 10307 10304 10302 10299 10297 10295 10292 10290 10286 10283 10280 10277 10274 10270 10266 10260 10255 10251 10248 10244 10240 10235 10230
10310 10311 10312 10312 10312 10313 10315 10316 10316 10317 10317 10317 10317 10319 10321 10323 10322 10320 10321 10323 10325 10326 10325 10324 10324 10324 10324 10324 10324 10325 10327 10328 10330 10331 10331 10331 10332 10333 10335 10335 10335 10335 10335 10335 10334 10333 10330 10326 10323 10322 10322 10320 10318 10316 10314 10312 10311 10309 10307 10305 10303 10300 10297 10294 10291 10288 10286 10284 10282 10280 10279 10276 10273 10270 10267 10263 10260 10257 10252 10247 10243 10239 10236 10234 10230 10225 10220
10297 10297 10297 10298 10298 10299 10300 10301 10302 10302 10302 10303 10303 10303 10305 10308 10308 10306 10306 10308 10311 10311 10310 10309 10309 10309 10309 10308 10308 10309 10311 10313 10314 10314 10314 10315 10318 10320 10321 10321 10321 10322 10322 10321 10320 10317 10313 10309 10308 10310 10309 10306 10302 10300 10298 10296 10295 10294 10292 10290 10288 10285 10281 10278 10275 10273 10272 10271 10270 10268 10266 10264 10261 10258 10254 10250 10247 10243 10239 10235 10232 10229 10226 10223 10219 10214 10209
10284 10284 10284 10284 10285 10286 10286 10287 10287 10287 10287 10289 10289 10289 10290 10292 10294 10293 10292 10294 10296 10297 10297 10295 10294 10293 10293 10292 10292 10294 10296 10297 10297 10297 10298 10301 10304 10306 10307 10307 10308 10309 10308 10307 10305 10303 10298 10293 10291 10293 10294 10291 10288 10286 10284 10282 10282 10281 10278 10275 10272 10269 10265 10262 10260 10260 10260 10259 10258 10256 10253 10251 10248 10246 10242 10238 10234 10230 10227 10224 10221 10218 10216 10213 10209 10204 10199
10271 10271 10271 10271 10273 10273 10273 10273 10273 10273 10274 10276 10277 10276 10277 10278 10279 10279 10279 10280 10281 10282 10283 10281 10279 10278 10278 10278 10278 10280 10281 10282 10282 10282 10284 10287 10289 10291 10292 10292 10293 10295 10295 10293 10291 10289 10285 10280 10277 10277 10276 10274 10272 10272 10272 10271 10270 10268 10265 10261 10257 10254 10251 10248 10247 10248 10248 10247 10245 10243 10241 10238 10236 10234 10230 10226 10222 10218 10216 10214 10211 10208 10205 10202 10198 10193 10189
10259 10259 10259 10259 10260 10261 10261 10261 10261 10261 10262 10264 10265 10265 10265 10265 10266 10266 10267 10267 10267 10268 10269 10267 10265 10263 10264 10265 10266 10266 10267 10267 10267 10268 10270 10273 10275 10275 10276 10278 10279 10281 10281 10279 10277 10275 10272 10269 10266 10262 10260 10259 10259 10259 10259 10259 10257 10255 10251 10248 10244 10241 10237 10235 10234 10234 10235 10234 10233 10231 10229 10226 10224 10222 10219 10215 10211 10208 10205 10204 10201 10198 10195 10191 10187 10183 10178
10246 10247 10247 10247 10248 10249 10250 10250 10250 10251 10252 10252 10253 10254 10254 10254 10253 10254 10254 10255 10255 10255 10255 10253 10251 10250 10251 10253 10253 10254 10254 10254 10254 10254 10256 10258 10260 10259 10260 10262 10265 10266 10266 10266 10265 10263 10259 10257 10254 10250 10248 10248 10248 10246 10245 10245 10244 10242 10239 10236 10233 10229 10225 10222 10222 10222 10221 10220 10218 10217 10215 10214 10213 10211 10208 10205 10201 10198 10196 10194 10191 10188 10185 10181 10177 10173 10168
10235 10236 10236 10236 10237 10237 10238 10239 10239 10240 10240 10241 10241 10242 10242 10242 10242 10242 10242 10243 10243 10243 10242 10240 10239 10239 10240 10241 10241 10242 10242 10243 10244 10243 10244 10245 10246 10245 10245 10247 10248 10249 10250 10251 10251 10248 10245 10243 10241 10239 10237 10236 10235 10233 10231 10231 10231 10229 10227 10225 10221 10217 10213 10212 10212 10212 10210 10207 10204 10203 10202 10201 10200 10198 10196 10194 10192 10190 10187 10185 10182 10179 10176 10173 10169 10164 10159
10225 10226 10226 10226 10226 10226 10227 10227 10228 10229 10229 10228 10228 10229 10230 10230 10231 10232 10232 10231 10231 10230 10230 10229 10229 10229 10230 10230 10231 10231 10232 10233 10234 10234 10234 10234 10234 10234 10234 10234 10234 10235 10235 10236 10236 10234 10232 10230 10229 10227 10224 10222 10221 10219 10217 10217 10217 10216 10215 10212 10208 10204 10203 10203 10203 10201 10198 10195 10193 10192 10190 10189 10187 10186 10184 10183 10182 10180 10178 10176 10174 10171 10168 10164 10160 10155 10151